{"data":{"norad_id":58718,"intl_designator":"2024-002P","name":"STARLINK-31097","alt_names":[],"object_type":"PAYLOAD","status":"ACTIVE","operator":null,"country":"US","launch_date":"2024-01-03","launch_site_code":"AFWTR","launch_vehicle":null,"mission":null,"orbit_class":"UNKNOWN","rcs_meters":null,"size_class":null,"mass_kg":null,"dimensions":null,"purposes":["comms"],"wikipedia_slug":null,"has_3d_model":false,"image_url":null,"decayed_at":null,"tle_current":{"epoch":"2026-05-25T05:27:30.972384Z","epoch_age_seconds":58564,"freshness":"FRESH","line1":"1 58718U 24002P   26145.22744181  .00000829  00000+0  40119-4 0  9991","line2":"2 58718  53.1600 234.4186 0001022 100.3420 259.7696 15.30191177133735","mean_motion":15.30191177,"eccentricity":0.0001022,"inclination_deg":53.16,"raan_deg":234.4186,"arg_perigee_deg":100.342,"mean_anomaly_deg":259.7696,"bstar":4.0119e-5,"rev_number":13373,"period_min":94.105888312804,"perigee_km":474.54099815969,"apogee_km":475.9418287074,"semimajor_km":6853.3784134335,"source":"CELESTRAK","updated_at":"2026-05-25T13:38:18.717435Z"}}}